TVF69UZ LFPO-LEMH

Flight info

Callsign TVF69UZ
Flight time 1h 25m
Altitude 39000
Route ERIXU DCT ETAMO DCT ADEKA DCT MOKDI DCT MEN DCT BADAM DCT KANIG/N0429F370 DCT BGR DCT DALIN DCT AGENA DCT VERSO DCT TOSNU L16 SARGO
Aircraft A20N/M-SBDE2E3FGHIJ1J5M1P2RWYZ/LB1D1G1

Departure

Time 2026-04-26 14:22
Airport Paris-Orly Airport (LFPO)

Arrival

Time 2026-04-26 15:47
Airport Menorca Airport (LEMH)
Time Latitude Longitude Altitude Speed Heading
2026-04-26 13:52 48.72726 2.36753 292 ft 0 kts 22°
2026-04-26 14:10 48.72721 2.36750 292 ft 2 kts 22°
2026-04-26 14:11 48.72693 2.36733 292 ft 2 kts 22°
2026-04-26 14:11 48.72680 2.36725 292 ft 2 kts 22°
2026-04-26 14:11 48.72665 2.36716 292 ft 2 kts 22°
2026-04-26 14:12 48.72652 2.36708 292 ft 0 kts 22°
2026-04-26 14:12 48.72642 2.36702 292 ft 2 kts
2026-04-26 14:12 48.72628 2.36707 292 ft 2 kts 330°
2026-04-26 14:12 48.72616 2.36723 292 ft 2 kts 298°
2026-04-26 14:13 48.72613 2.36758 292 ft 1 kts 249°
2026-04-26 14:13 48.72616 2.36767 292 ft 0 kts 248°
2026-04-26 14:15 48.72613 2.36754 292 ft 3 kts 248°
2026-04-26 14:15 48.72599 2.36697 292 ft 7 kts 250°
2026-04-26 14:16 48.72574 2.36617 292 ft 8 kts 218°
2026-04-26 14:16 48.72512 2.36609 292 ft 9 kts 195°
2026-04-26 14:16 48.72477 2.36522 292 ft 10 kts 254°
2026-04-26 14:16 48.72455 2.36404 292 ft 11 kts 254°
2026-04-26 14:17 48.72432 2.36279 292 ft 12 kts 254°
2026-04-26 14:17 48.72406 2.36144 292 ft 13 kts 254°
2026-04-26 14:17 48.72380 2.36002 292 ft 14 kts 254°
2026-04-26 14:17 48.72353 2.35854 292 ft 14 kts 254°
2026-04-26 14:18 48.72326 2.35706 292 ft 13 kts 254°
2026-04-26 14:18 48.72269 2.35608 292 ft 12 kts 201°
2026-04-26 14:18 48.72179 2.35621 292 ft 13 kts 164°
2026-04-26 14:18 48.72088 2.35671 292 ft 14 kts 147°
2026-04-26 14:19 48.72036 2.35734 292 ft 6 kts 127°
2026-04-26 14:19 48.72028 2.35753 292 ft 0 kts 118°
2026-04-26 14:20 48.72026 2.35757 292 ft 1 kts 118°
2026-04-26 14:20 48.72012 2.35796 292 ft 6 kts 119°
2026-04-26 14:20 48.71972 2.35867 292 ft 9 kts 155°
2026-04-26 14:21 48.71957 2.35946 292 ft 9 kts 73°
2026-04-26 14:21 48.72017 2.36278 292 ft 68 kts 73°
2026-04-26 14:21 48.72208 2.37307 292 ft 133 kts 74°
2026-04-26 14:21 48.72485 2.38848 576 ft 159 kts 73°
2026-04-26 14:22 48.72783 2.40481 1186 ft 163 kts 73°
2026-04-26 14:22 48.73085 2.42131 1885 ft 164 kts 72°
2026-04-26 14:22 48.73400 2.43800 2600 ft 163 kts 73°
2026-04-26 14:22 48.73701 2.45424 3198 ft 164 kts 73°
2026-04-26 14:23 48.74006 2.47101 3731 ft 171 kts 76°
2026-04-26 14:23 48.74207 2.48960 4129 ft 188 kts 84°
2026-04-26 14:23 48.74261 2.51094 4477 ft 211 kts 88°
2026-04-26 14:23 48.74282 2.53420 4945 ft 229 kts 88°
2026-04-26 14:24 48.74249 2.55936 5434 ft 248 kts 98°
2026-04-26 14:24 48.73508 2.58381 5915 ft 268 kts 130°
2026-04-26 14:24 48.71998 2.60026 6645 ft 277 kts 158°
2026-04-26 14:24 48.70085 2.60388 7489 ft 282 kts 188°
2026-04-26 14:25 48.68292 2.59304 8324 ft 285 kts 213°
2026-04-26 14:25 48.66637 2.57625 9178 ft 288 kts 213°
2026-04-26 14:25 48.64962 2.55948 10007 ft 292 kts 213°
2026-04-26 14:25 48.63278 2.54277 10759 ft 297 kts 213°
2026-04-26 14:26 48.61496 2.52515 11219 ft 314 kts 213°
2026-04-26 14:26 48.59615 2.50661 11752 ft 327 kts 213°
2026-04-26 14:26 48.57711 2.48793 12479 ft 331 kts 213°
2026-04-26 14:26 48.55767 2.46889 13120 ft 336 kts 213°
2026-04-26 14:27 48.53798 2.44963 13944 ft 337 kts 213°
2026-04-26 14:27 48.51834 2.43046 14713 ft 340 kts 213°
2026-04-26 14:27 48.49836 2.41095 15456 ft 343 kts 214°
2026-04-26 14:27 48.47823 2.39131 16182 ft 347 kts 214°
2026-04-26 14:28 48.45783 2.37143 16887 ft 350 kts 214°
2026-04-26 14:28 48.43723 2.35135 17571 ft 353 kts 214°
2026-04-26 14:28 48.41670 2.33137 18236 ft 357 kts 214°
2026-04-26 14:28 48.39547 2.31072 18894 ft 361 kts 214°
2026-04-26 14:29 48.37459 2.29044 19501 ft 365 kts 214°
2026-04-26 14:29 48.35301 2.26951 20123 ft 368 kts 214°
2026-04-26 14:29 48.33144 2.24861 20730 ft 372 kts 214°
2026-04-26 14:29 48.30931 2.22830 21314 ft 377 kts 207°
2026-04-26 14:30 48.28429 2.21648 21858 ft 384 kts 189°
2026-04-26 14:30 48.25757 2.21615 22406 ft 390 kts 173°
2026-04-26 14:30 48.23058 2.22257 22967 ft 394 kts 171°
2026-04-26 14:30 48.20322 2.22979 23485 ft 399 kts 171°
2026-04-26 14:31 48.17593 2.23687 23991 ft 403 kts 171°
2026-04-26 14:31 48.14800 2.24385 24513 ft 406 kts 172°
2026-04-26 14:31 48.12006 2.25067 25041 ft 409 kts 172°
2026-04-26 14:31 48.09201 2.25695 25515 ft 412 kts 174°
2026-04-26 14:32 48.06338 2.26086 25987 ft 415 kts 178°
2026-04-26 14:32 48.03448 2.26277 26444 ft 418 kts 179°
2026-04-26 14:32 48.00539 2.26456 26887 ft 421 kts 179°
2026-04-26 14:32 47.97610 2.26637 27323 ft 425 kts 179°
2026-04-26 14:33 47.94647 2.26822 27756 ft 428 kts 179°
2026-04-26 14:33 47.91666 2.27010 28176 ft 431 kts 179°
2026-04-26 14:33 47.88659 2.27200 28577 ft 434 kts 179°
2026-04-26 14:33 47.85601 2.27394 28973 ft 437 kts 179°
2026-04-26 14:34 47.82524 2.27590 29362 ft 439 kts 179°
2026-04-26 14:34 47.79456 2.27784 29727 ft 442 kts 179°
2026-04-26 14:34 47.76389 2.27978 30084 ft 445 kts 179°
2026-04-26 14:34 47.73294 2.28174 30438 ft 448 kts 179°
2026-04-26 14:35 47.70147 2.28372 30808 ft 450 kts 179°
2026-04-26 14:35 47.67050 2.28568 31181 ft 452 kts 179°
2026-04-26 14:35 47.63903 2.28767 31523 ft 454 kts 179°
2026-04-26 14:35 47.60718 2.28967 31849 ft 456 kts 179°
2026-04-26 14:36 47.57549 2.29167 32159 ft 458 kts 179°
2026-04-26 14:36 47.54363 2.29367 32483 ft 460 kts 179°
2026-04-26 14:36 47.51160 2.29569 32900 ft 459 kts 179°
2026-04-26 14:36 47.47972 2.29769 33330 ft 457 kts 179°
2026-04-26 14:37 47.44802 2.29968 33748 ft 456 kts 179°
2026-04-26 14:37 47.41612 2.30167 34138 ft 455 kts 179°
2026-04-26 14:37 47.38463 2.30364 34695 ft 449 kts 179°
2026-04-26 14:37 47.35402 2.30557 35151 ft 444 kts 179°
2026-04-26 14:38 47.32292 2.30750 35467 ft 442 kts 179°
2026-04-26 14:38 47.29210 2.30941 35684 ft 443 kts 179°
2026-04-26 14:38 47.26121 2.31134 35866 ft 444 kts 179°
2026-04-26 14:38 47.23046 2.31324 36047 ft 445 kts 179°
2026-04-26 14:39 47.19962 2.31514 36241 ft 446 kts 179°
2026-04-26 14:39 47.16828 2.31708 36437 ft 446 kts 179°
2026-04-26 14:39 47.13748 2.31899 36624 ft 447 kts 179°
2026-04-26 14:39 47.10654 2.32091 36833 ft 447 kts 179°
2026-04-26 14:40 47.07495 2.32287 37046 ft 447 kts 179°
2026-04-26 14:40 47.04365 2.32481 37154 ft 449 kts 179°
2026-04-26 14:40 47.01268 2.32672 37157 ft 450 kts 179°
2026-04-26 14:41 46.94970 2.33061 37155 ft 451 kts 179°
2026-04-26 14:41 46.88679 2.33688 37155 ft 458 kts 175°
2026-04-26 14:42 46.82211 2.34715 37156 ft 461 kts 174°
2026-04-26 14:42 46.75823 2.35746 37157 ft 462 kts 175°
2026-04-26 14:43 46.69444 2.36758 37154 ft 462 kts 175°
2026-04-26 14:43 46.63033 2.37767 37159 ft 463 kts 174°
2026-04-26 14:44 46.56638 2.38771 37159 ft 463 kts 175°
2026-04-26 14:44 46.50217 2.39774 37162 ft 462 kts 174°
2026-04-26 14:45 46.43820 2.40771 37158 ft 462 kts 174°
2026-04-26 14:45 46.37391 2.41769 37162 ft 463 kts 174°
2026-04-26 14:46 46.30976 2.42763 37160 ft 463 kts 174°
2026-04-26 14:46 46.24562 2.43757 37162 ft 464 kts 174°
2026-04-26 14:47 46.18109 2.44753 37157 ft 464 kts 174°
2026-04-26 14:47 46.11688 2.45744 37167 ft 464 kts 174°
2026-04-26 14:48 46.05279 2.46729 37165 ft 464 kts 174°
2026-04-26 14:48 45.98844 2.47716 37163 ft 464 kts 174°
2026-04-26 14:49 45.92413 2.48698 37169 ft 464 kts 174°
2026-04-26 14:49 45.85930 2.49687 37169 ft 464 kts 174°
2026-04-26 14:50 45.79506 2.50665 37167 ft 464 kts 174°
2026-04-26 14:50 45.73038 2.51649 37165 ft 464 kts 174°
2026-04-26 14:51 45.66635 2.52620 37164 ft 464 kts 174°
2026-04-26 14:51 45.60203 2.53593 37160 ft 464 kts 174°
2026-04-26 14:52 45.53777 2.54562 37163 ft 464 kts 174°
2026-04-26 14:52 45.47321 2.55533 37158 ft 464 kts 174°
2026-04-26 14:53 45.40910 2.56495 37162 ft 464 kts 174°
2026-04-26 14:53 45.34477 2.57458 37165 ft 464 kts 174°
2026-04-26 14:54 45.28025 2.58423 37160 ft 464 kts 174°
2026-04-26 14:54 45.21608 2.59383 37164 ft 464 kts 174°
2026-04-26 14:55 45.15191 2.60338 37171 ft 464 kts 174°
2026-04-26 14:55 45.08783 2.61290 37160 ft 464 kts 174°
2026-04-26 14:56 45.02329 2.62245 37165 ft 464 kts 174°
2026-04-26 14:56 44.95871 2.63199 37168 ft 464 kts 174°
2026-04-26 14:57 44.89457 2.64146 37165 ft 464 kts 174°
2026-04-26 14:57 44.82957 2.65103 37167 ft 464 kts 175°
2026-04-26 14:58 44.76488 2.66054 37157 ft 463 kts 175°
2026-04-26 14:58 44.70050 2.66997 37150 ft 463 kts 175°
2026-04-26 14:59 44.63658 2.67932 37147 ft 462 kts 175°
2026-04-26 14:59 44.57248 2.68865 37144 ft 462 kts 175°
2026-04-26 15:00 44.50854 2.69795 37141 ft 461 kts 175°
2026-04-26 15:00 44.44482 2.70720 37142 ft 462 kts 175°
2026-04-26 15:01 44.38070 2.71648 37143 ft 461 kts 175°
2026-04-26 15:01 44.31722 2.72567 37143 ft 461 kts 175°
2026-04-26 15:02 44.25328 2.73490 37149 ft 461 kts 175°
2026-04-26 15:02 44.18950 2.74409 37149 ft 460 kts 175°
2026-04-26 15:03 44.12601 2.75321 37137 ft 459 kts 175°
2026-04-26 15:03 44.06261 2.76229 37129 ft 458 kts 175°
2026-04-26 15:04 43.99918 2.77135 37118 ft 457 kts 175°
2026-04-26 15:04 43.93617 2.78034 37118 ft 457 kts 175°
2026-04-26 15:05 43.87264 2.78939 37121 ft 457 kts 175°
2026-04-26 15:05 43.80877 2.79846 37126 ft 456 kts 175°
2026-04-26 15:06 43.74575 2.80740 37131 ft 456 kts 175°
2026-04-26 15:06 43.68240 2.81635 37129 ft 456 kts 175°
2026-04-26 15:07 43.58783 2.82969 37119 ft 455 kts 175°
2026-04-26 15:07 43.52497 2.83854 37107 ft 455 kts 175°
2026-04-26 15:08 43.46178 2.84741 37096 ft 455 kts 176°
2026-04-26 15:08 43.39909 2.85621 37090 ft 456 kts 176°
2026-04-26 15:09 43.33576 2.86505 37082 ft 455 kts 176°
2026-04-26 15:09 43.27286 2.87383 37076 ft 454 kts 175°
2026-04-26 15:10 43.22030 2.88117 37071 ft 453 kts 176°
2026-04-26 15:10 43.14677 2.89139 37073 ft 453 kts 176°
2026-04-26 15:11 43.08423 2.90006 37076 ft 453 kts 176°
2026-04-26 15:11 43.02124 2.90877 37077 ft 453 kts 176°
2026-04-26 15:12 42.95869 2.91742 37078 ft 453 kts 176°
2026-04-26 15:12 42.89595 2.92607 37082 ft 452 kts 176°
2026-04-26 15:13 42.83292 2.93474 37079 ft 452 kts 176°
2026-04-26 15:13 42.77060 2.94329 37082 ft 451 kts 176°
2026-04-26 15:14 42.70815 2.95187 37081 ft 451 kts 176°
2026-04-26 15:14 42.64572 2.96044 37088 ft 451 kts 176°
2026-04-26 15:15 42.58290 2.96903 37087 ft 451 kts 176°
2026-04-26 15:15 42.52076 2.97777 37087 ft 451 kts 174°
2026-04-26 15:16 42.45900 2.99323 37088 ft 452 kts 167°
2026-04-26 15:16 42.39845 3.01759 37087 ft 451 kts 164°
2026-04-26 15:17 42.34870 3.03890 37084 ft 451 kts 164°
2026-04-26 15:17 42.27843 3.06883 37076 ft 452 kts 164°
2026-04-26 15:18 42.21885 3.09413 37076 ft 451 kts 163°
2026-04-26 15:18 42.15894 3.11952 37074 ft 451 kts 163°
2026-04-26 15:19 42.09887 3.14495 37071 ft 450 kts 164°
2026-04-26 15:19 42.03903 3.17022 36984 ft 451 kts 164°
2026-04-26 15:20 42.00927 3.18276 36688 ft 449 kts 164°
2026-04-26 15:20 41.97982 3.19540 36446 ft 446 kts 162°
2026-04-26 15:20 41.95061 3.20993 36214 ft 444 kts 159°
2026-04-26 15:20 41.92254 3.22642 35981 ft 443 kts 156°
2026-04-26 15:21 41.89502 3.24505 35744 ft 442 kts 154°
2026-04-26 15:21 41.86753 3.26431 35507 ft 442 kts 154°
2026-04-26 15:21 41.84066 3.28315 35275 ft 442 kts 154°
2026-04-26 15:21 41.81329 3.30230 35027 ft 443 kts 154°
2026-04-26 15:22 41.78589 3.32143 34664 ft 443 kts 154°
2026-04-26 15:22 41.75859 3.34040 34091 ft 444 kts 154°
2026-04-26 15:22 41.73138 3.35929 33443 ft 444 kts 153°
2026-04-26 15:22 41.70382 3.37837 32754 ft 445 kts 153°
2026-04-26 15:23 41.67661 3.39721 32099 ft 444 kts 153°
2026-04-26 15:23 41.64941 3.41603 31678 ft 440 kts 153°
2026-04-26 15:23 41.62225 3.43486 31231 ft 438 kts 153°
2026-04-26 15:23 41.59538 3.45344 30777 ft 434 kts 153°
2026-04-26 15:24 41.56866 3.47189 30321 ft 431 kts 153°
2026-04-26 15:24 41.54242 3.49000 29866 ft 428 kts 153°
2026-04-26 15:24 41.51592 3.50823 29407 ft 425 kts 153°
2026-04-26 15:24 41.48985 3.52615 28949 ft 422 kts 153°
2026-04-26 15:25 41.46412 3.54383 28499 ft 418 kts 153°
2026-04-26 15:25 41.44662 3.55585 28191 ft 416 kts 153°
2026-04-26 15:25 41.41286 3.57902 27600 ft 412 kts 153°
2026-04-26 15:25 41.38737 3.59652 27152 ft 409 kts 152°
2026-04-26 15:26 41.36235 3.61368 26706 ft 406 kts 152°
2026-04-26 15:26 41.33715 3.63094 26257 ft 403 kts 152°
2026-04-26 15:26 41.31265 3.64771 25819 ft 400 kts 152°
2026-04-26 15:26 41.28779 3.66472 25373 ft 397 kts 153°
2026-04-26 15:27 41.26356 3.68130 24932 ft 394 kts 153°
2026-04-26 15:27 41.23934 3.69786 24492 ft 391 kts 152°
2026-04-26 15:27 41.21530 3.71426 24051 ft 388 kts 152°
2026-04-26 15:27 41.19123 3.73066 23608 ft 386 kts 152°
2026-04-26 15:28 41.16740 3.74610 23169 ft 384 kts 156°
2026-04-26 15:28 41.14259 3.75929 22728 ft 382 kts 160°
2026-04-26 15:28 41.11749 3.76977 22291 ft 380 kts 164°
2026-04-26 15:28 41.09222 3.77899 21857 ft 377 kts 165°
2026-04-26 15:29 41.06672 3.78819 21415 ft 375 kts 165°
2026-04-26 15:29 41.04167 3.79724 20978 ft 373 kts 165°
2026-04-26 15:29 40.99189 3.81523 20109 ft 369 kts 165°
2026-04-26 15:30 40.94272 3.83292 19239 ft 365 kts 165°
2026-04-26 15:30 40.91843 3.84167 18801 ft 362 kts 164°
2026-04-26 15:30 40.89394 3.85049 18370 ft 360 kts 164°
2026-04-26 15:31 40.86980 3.85920 17934 ft 358 kts 164°
2026-04-26 15:31 40.82211 3.87635 17071 ft 355 kts 164°
2026-04-26 15:31 40.79844 3.88486 16638 ft 353 kts 164°
2026-04-26 15:32 40.75919 3.89898 15924 ft 351 kts 164°
2026-04-26 15:32 40.72804 3.91016 15334 ft 349 kts 164°
2026-04-26 15:32 40.70441 3.91863 14897 ft 347 kts 164°
2026-04-26 15:33 40.68131 3.92691 14478 ft 346 kts 164°
2026-04-26 15:33 40.65817 3.93519 14042 ft 344 kts 164°
2026-04-26 15:33 40.63518 3.94341 13619 ft 342 kts 163°
2026-04-26 15:33 40.61233 3.95159 13193 ft 340 kts 163°
2026-04-26 15:34 40.58960 3.95973 12775 ft 338 kts 163°
2026-04-26 15:34 40.56697 3.96782 12365 ft 336 kts 163°
2026-04-26 15:34 40.54436 3.97590 11953 ft 335 kts 163°
2026-04-26 15:34 40.52212 3.98383 11531 ft 333 kts 163°
2026-04-26 15:35 40.49971 3.99182 11102 ft 331 kts 164°
2026-04-26 15:35 40.47744 3.99974 10693 ft 329 kts 164°
2026-04-26 15:35 40.45549 4.00753 10344 ft 324 kts 164°
2026-04-26 15:35 40.43424 4.01506 10224 ft 311 kts 164°
2026-04-26 15:36 40.41376 4.02232 10120 ft 299 kts 164°
2026-04-26 15:36 40.39389 4.02937 9793 ft 296 kts 164°
2026-04-26 15:36 40.37413 4.03639 9432 ft 294 kts 163°
2026-04-26 15:36 40.35439 4.04339 9071 ft 292 kts 163°
2026-04-26 15:37 40.33492 4.05031 8729 ft 290 kts 163°
2026-04-26 15:37 40.31557 4.05717 8384 ft 287 kts 163°
2026-04-26 15:37 40.29641 4.06395 8067 ft 284 kts 163°
2026-04-26 15:37 40.27724 4.07074 7738 ft 282 kts 163°
2026-04-26 15:38 40.25840 4.07741 7396 ft 280 kts 163°
2026-04-26 15:38 40.23957 4.08407 7056 ft 278 kts 163°
2026-04-26 15:38 40.22110 4.09058 6739 ft 275 kts 163°
2026-04-26 15:38 40.20264 4.09711 6416 ft 273 kts 163°
2026-04-26 15:39 40.18433 4.10358 6103 ft 272 kts 163°
2026-04-26 15:39 40.16620 4.10999 5774 ft 270 kts 163°
2026-04-26 15:39 40.14800 4.11642 5433 ft 269 kts 163°
2026-04-26 15:39 40.13609 4.12061 5219 ft 267 kts 163°
2026-04-26 15:40 40.11245 4.12894 4917 ft 258 kts 163°
2026-04-26 15:40 40.09537 4.13566 4728 ft 251 kts 153°
2026-04-26 15:40 40.08190 4.14971 4335 ft 249 kts 123°
2026-04-26 15:40 40.07544 4.17043 3961 ft 247 kts 97°
2026-04-26 15:41 40.07559 4.19247 3664 ft 244 kts 84°
2026-04-26 15:41 40.07721 4.21440 3367 ft 242 kts 86°
2026-04-26 15:41 40.07676 4.23634 3058 ft 241 kts 105°
2026-04-26 15:41 40.06857 4.25459 2974 ft 231 kts 137°
2026-04-26 15:42 40.05470 4.26417 2763 ft 229 kts 168°
2026-04-26 15:42 40.03899 4.26261 2533 ft 228 kts 197°
2026-04-26 15:42 40.02446 4.25546 2435 ft 217 kts 198°
2026-04-26 15:42 40.01030 4.24992 2443 ft 201 kts 191°
2026-04-26 15:43 39.99725 4.24629 2557 ft 182 kts 188°
2026-04-26 15:43 39.98550 4.24369 2475 ft 160 kts 187°
2026-04-26 15:43 39.96512 4.23963 2062 ft 138 kts 186°
2026-04-26 15:44 39.95557 4.23772 1890 ft 139 kts 186°
2026-04-26 15:44 39.93652 4.23381 1552 ft 137 kts 186°
2026-04-26 15:44 39.92699 4.23185 1372 ft 137 kts 186°
2026-04-26 15:45 39.90820 4.22798 1013 ft 136 kts 186°
2026-04-26 15:45 39.89861 4.22602 859 ft 137 kts 186°
2026-04-26 15:46 39.87948 4.22206 490 ft 137 kts 186°
2026-04-26 15:46 39.86997 4.22018 299 ft 134 kts 187°
2026-04-26 15:46 39.86308 4.21876 294 ft 60 kts 188°
2026-04-26 15:46 39.86048 4.21822 293 ft 54 kts 189°
2026-04-26 15:47 39.85631 4.21756 284 ft 30 kts 173°
2026-04-26 15:47 39.85404 4.21909 272 ft 11 kts 58°
2026-04-26 15:47 39.85478 4.21943 274 ft 10 kts
2026-04-26 15:48 39.85551 4.21958 278 ft 10 kts
2026-04-26 15:48 39.85631 4.21975 282 ft 12 kts
2026-04-26 15:48 39.85720 4.21993 285 ft 13 kts
2026-04-26 15:48 39.85822 4.22014 287 ft 15 kts
2026-04-26 15:49 39.85926 4.22035 288 ft 15 kts
2026-04-26 15:49 39.86037 4.22058 286 ft 17 kts
2026-04-26 15:49 39.86155 4.22082 283 ft 13 kts
2026-04-26 15:49 39.86190 4.22151 281 ft 12 kts 98°
2026-04-26 15:50 39.86196 4.22254 274 ft 11 kts 36°
2026-04-26 15:50 39.86299 4.22283 266 ft 16 kts
2026-04-26 15:50 39.86379 4.22318 263 ft 8 kts 82°
2026-04-26 15:50 39.86373 4.22374 265 ft 3 kts 99°
2026-04-26 15:51 39.86371 4.22388 266 ft 0 kts 99°
2026-04-26 15:51 39.86370 4.22397 266 ft 0 kts 99°
2026-04-26 15:54 39.86371 4.22397 266 ft 0 kts 99°